Time,TemperatureF,DewpointF,PressureIn,WindDirection,WindDirectionDegrees,WindSpeedMPH,WindSpeedGustMPH,Humidity,HourlyPrecipIn,Conditions,Clouds,dailyrainin,SoftwareType,DateUTC
2013-02-14 00:00:00,33.3,30.9,29.55,North,0,0.0,0.0,91,0.00,CLR,,0.12,WeatherDisplay:10.37,2013-02-14 05:00:00,
2013-02-14 00:05:00,33.3,30.9,29.55,NW,315,0.0,0.0,91,0.00,RA,,0.00,WeatherDisplay:10.37,2013-02-14 05:05:00,
2013-02-14 00:10:00,33.3,30.9,29.55,NW,315,0.0,0.0,91,0.00,CLR,,0.00,WeatherDisplay:10.37,2013-02-14 05:10:00,
2013-02-14 00:15:00,33.3,30.9,29.56,NE,45,0.0,0.0,91,0.00,CLR,,0.00,WeatherDisplay:10.37,2013-02-14 05:15:00,
2013-02-14 00:20:00,33.3,30.9,29.56,NW,315,0.0,0.0,91,0.00,CLR,,0.00,WeatherDisplay:10.37,2013-02-14 05:20:00,
2013-02-14 00:25:00,33.3,30.9,29.56,NE,45,0.0,0.0,91,0.00,CLR,,0.00,WeatherDisplay:10.37,2013-02-14 05:25:00,
2013-02-14 00:30:00,33.4,31.1,29.56,NW,315,0.0,0.0,91,0.00,CLR,,0.00,WeatherDisplay:10.37,2013-02-14 05:30:00,
2013-02-14 00:35:00,33.4,31.1,29.56,NW,315,0.0,0.0,91,0.00,CLR,,0.00,WeatherDisplay:10.37,2013-02-14 05:35:00,
2013-02-14 00:40:00,33.4,31.1,29.56,WNW,292,0.0,0.0,91,0.00,CLR,,0.00,WeatherDisplay:10.37,2013-02-14 05:40:00,
2013-02-14 00:45:00,33.4,31.4,29.56,SE,135,0.0,0.0,92,0.00,CLR,,0.00,WeatherDisplay:10.37,2013-02-14 05:45:00,
2013-02-14 00:50:00,33.4,31.4,29.56,NW,315,0.0,0.0,92,0.00,CLR,,0.00,WeatherDisplay:10.37,2013-02-14 05:50:00,
2013-02-14 00:55:00,33.6,31.5,29.56,West,270,0.0,0.0,92,0.00,CLR,,0.00,WeatherDisplay:10.37,2013-02-14 05:55:00,
2013-02-14 01:00:00,33.6,31.5,29.56,North,0,0.0,0.0,92,0.00,CLR,,0.00,WeatherDisplay:10.37,2013-02-14 06:00:00,
2013-02-14 01:05:00,33.6,31.5,29.57,North,0,0.0,0.0,92,0.00,CLR,,0.00,WeatherDisplay:10.37,2013-02-14 06:05:00,
2013-02-14 01:10:00,33.6,31.5,29.56,West,270,0.0,0.0,92,0.00,CLR,,0.00,WeatherDisplay:10.37,2013-02-14 06:10:00,
2013-02-14 01:15:00,33.6,31.5,29.56,NW,315,0.0,0.0,92,0.00,CLR,,0.00,WeatherDisplay:10.37,2013-02-14 06:15:00,
2013-02-14 01:20:00,33.6,31.8,29.56,North,0,0.0,0.0,93,0.00,CLR,,0.00,WeatherDisplay:10.37,2013-02-14 06:20:00,
2013-02-14 01:25:00,33.6,31.8,29.56,NE,45,0.0,0.0,93,0.00,CLR,,0.00,WeatherDisplay:10.37,2013-02-14 06:25:00,
2013-02-14 01:30:00,33.6,31.8,29.57,West,270,0.0,0.0,93,0.00,CLR,,0.00,WeatherDisplay:10.37,2013-02-14 06:30:00,
2013-02-14 01:35:00,33.6,31.8,29.57,North,0,0.0,0.0,93,0.00,CLR,,0.00,WeatherDisplay:10.37,2013-02-14 06:35:00,
2013-02-14 01:40:00,33.6,31.8,29.57,WNW,292,0.0,0.0,93,0.00,CLR,,0.00,WeatherDisplay:10.37,2013-02-14 06:40:00,
2013-02-14 01:45:00,33.6,31.8,29.57,North,0,0.0,0.0,93,0.00,CLR,,0.00,WeatherDisplay:10.37,2013-02-14 06:45:00,
2013-02-14 01:50:00,33.8,32.0,29.58,NE,45,0.0,0.0,93,0.00,CLR,,0.00,WeatherDisplay:10.37,2013-02-14 06:50:00,
2013-02-14 01:55:00,33.8,32.0,29.58,NE,45,0.0,0.0,93,0.00,CLR,,0.00,WeatherDisplay:10.37,2013-02-14 06:55:00,
2013-02-14 02:00:00,33.8,32.0,29.58,NW,315,0.0,0.0,93,0.00,CLR,,0.00,WeatherDisplay:10.37,2013-02-14 07:00:00,
2013-02-14 02:05:00,33.8,32.0,29.58,NE,45,0.0,0.0,93,0.00,CLR,,0.00,WeatherDisplay:10.37,2013-02-14 07:05:00,
2013-02-14 02:10:00,33.8,32.0,29.59,East,90,0.0,0.0,93,0.00,CLR,,0.00,WeatherDisplay:10.37,2013-02-14 07:10:00,
2013-02-14 02:15:00,33.8,32.0,29.59,NW,315,0.0,0.0,93,0.00,CLR,,0.00,WeatherDisplay:10.37,2013-02-14 07:15:00,
2013-02-14 02:20:00,34.0,32.4,29.59,West,270,0.0,0.0,94,0.00,CLR,,0.00,WeatherDisplay:10.37,2013-02-14 07:20:00,
2013-02-14 02:25:00,34.0,32.4,29.60,SW,225,0.0,0.0,94,0.00,CLR,,0.00,WeatherDisplay:10.37,2013-02-14 07:25:00,
2013-02-14 02:30:00,34.0,32.4,29.60,NW,315,0.0,0.0,94,0.00,CLR,,0.00,WeatherDisplay:10.37,2013-02-14 07:30:00,
2013-02-14 02:35:00,34.0,32.4,29.61,NW,315,0.0,0.0,94,0.00,CLR,,0.00,WeatherDisplay:10.37,2013-02-14 07:35:00,
2013-02-14 02:40:00,34.0,32.4,29.61,North,0,0.0,0.0,94,0.00,CLR,,0.00,WeatherDisplay:10.37,2013-02-14 07:40:00,
2013-02-14 02:45:00,34.0,32.4,29.62,SW,225,0.0,0.0,94,0.00,CLR,,0.00,WeatherDisplay:10.37,2013-02-14 07:45:00,
2013-02-14 02:50:00,34.2,32.6,29.62,West,270,0.0,0.0,94,0.00,CLR,,0.00,WeatherDisplay:10.37,2013-02-14 07:50:00,
2013-02-14 02:55:00,34.2,32.6,29.62,NW,315,1.1,0.0,94,0.00,CLR,,0.00,WeatherDisplay:10.37,2013-02-14 07:55:00,
2013-02-14 03:00:00,34.2,32.6,29.63,NW,315,0.0,0.0,94,0.00,CLR,,0.00,WeatherDisplay:10.37,2013-02-14 08:00:00,
2013-02-14 03:05:00,34.2,32.6,29.63,NW,315,0.0,0.0,94,0.00,CLR,,0.00,WeatherDisplay:10.37,2013-02-14 08:05:00,
2013-02-14 03:10:00,34.2,32.6,29.63,SE,135,1.1,0.0,94,0.00,CLR,,0.00,WeatherDisplay:10.37,2013-02-14 08:10:00,
2013-02-14 03:15:00,34.2,32.6,29.63,NW,315,5.8,0.0,94,0.00,CLR,,0.00,WeatherDisplay:10.37,2013-02-14 08:15:00,
2013-02-14 03:20:00,34.2,32.6,29.63,SE,135,0.0,0.0,94,0.00,CLR,,0.00,WeatherDisplay:10.37,2013-02-14 08:20:00,
2013-02-14 03:25:00,34.2,32.6,29.64,NW,315,1.1,0.0,94,0.00,CLR,,0.00,WeatherDisplay:10.37,2013-02-14 08:25:00,
2013-02-14 03:30:00,34.2,32.6,29.63,NE,45,0.0,0.0,94,0.00,CLR,,0.00,WeatherDisplay:10.37,2013-02-14 08:30:00,
2013-02-14 03:35:00,34.2,32.6,29.64,NE,45,0.0,0.0,94,0.00,CLR,,0.00,WeatherDisplay:10.37,2013-02-14 08:35:00,
2013-02-14 03:40:00,34.2,32.6,29.64,NW,315,3.5,0.0,94,0.00,CLR,,0.00,WeatherDisplay:10.37,2013-02-14 08:40:00,
2013-02-14 03:45:00,34.2,32.6,29.64,ENE,68,0.0,0.0,94,0.00,CLR,,0.00,WeatherDisplay:10.37,2013-02-14 08:45:00,
2013-02-14 03:51:00,34.2,32.6,29.64,NW,315,1.1,0.0,94,0.00,CLR,,0.00,WeatherDisplay:10.37,2013-02-14 08:51:00,
2013-02-14 03:56:00,34.2,32.6,29.65,NW,315,4.6,0.0,94,0.01,RA,,0.01,WeatherDisplay:10.37,2013-02-14 08:56:00,
2013-02-14 04:01:00,34.2,32.6,29.65,NW,315,0.0,0.0,94,0.01,RA,,0.01,WeatherDisplay:10.37,2013-02-14 09:01:00,
2013-02-14 04:06:00,34.0,32.4,29.65,NW,315,2.3,2.3,94,0.01,CLR,,0.01,WeatherDisplay:10.37,2013-02-14 09:06:00,
2013-02-14 04:11:00,34.0,32.4,29.65,NW,315,0.0,0.0,94,0.01,CLR,,0.01,WeatherDisplay:10.37,2013-02-14 09:11:00,
2013-02-14 04:16:00,34.0,32.4,29.65,WNW,292,0.0,0.0,94,0.01,CLR,,0.01,WeatherDisplay:10.37,2013-02-14 09:16:00,
2013-02-14 04:21:00,34.0,32.4,29.66,NW,315,1.1,0.0,94,0.01,CLR,,0.01,WeatherDisplay:10.37,2013-02-14 09:21:00,
2013-02-14 04:26:00,34.0,32.4,29.66,South,180,2.3,0.0,94,0.01,CLR,,0.01,WeatherDisplay:10.37,2013-02-14 09:26:00,
2013-02-14 04:31:00,34.0,32.4,29.66,NNE,22,0.0,0.0,94,0.01,CLR,,0.01,WeatherDisplay:10.37,2013-02-14 09:31:00,
2013-02-14 04:36:00,34.0,32.4,29.65,West,270,4.6,4.6,94,0.01,CLR,,0.01,WeatherDisplay:10.37,2013-02-14 09:36:00,
2013-02-14 04:41:00,34.0,32.4,29.65,West,270,0.0,0.0,94,0.01,CLR,,0.01,WeatherDisplay:10.37,2013-02-14 09:41:00,
2013-02-14 04:46:00,34.0,32.4,29.66,SW,225,0.0,0.0,94,0.01,CLR,,0.01,WeatherDisplay:10.37,2013-02-14 09:46:00,
2013-02-14 04:51:00,34.0,32.4,29.67,South,180,1.1,1.1,94,0.01,CLR,,0.01,WeatherDisplay:10.37,2013-02-14 09:51:00,
2013-02-14 04:56:00,33.8,32.3,29.67,NW,315,1.1,0.0,94,0.00,CLR,,0.01,WeatherDisplay:10.37,2013-02-14 09:56:00,
2013-02-14 05:01:00,33.6,32.1,29.67,SE,135,0.0,0.0,94,0.00,CLR,,0.01,WeatherDisplay:10.37,2013-02-14 10:01:00,
2013-02-14 05:06:00,33.4,31.9,29.67,SE,135,0.0,0.0,94,0.00,CLR,,0.01,WeatherDisplay:10.37,2013-02-14 10:06:00,
2013-02-14 05:11:00,33.4,31.9,29.67,SE,135,0.0,0.0,94,0.00,CLR,,0.01,WeatherDisplay:10.37,2013-02-14 10:11:00,
2013-02-14 05:16:00,33.3,31.7,29.67,SE,135,0.0,0.0,94,0.00,CLR,,0.01,WeatherDisplay:10.37,2013-02-14 10:16:00,
2013-02-14 05:21:00,33.3,31.7,29.67,SE,135,0.0,0.0,94,0.00,CLR,,0.01,WeatherDisplay:10.37,2013-02-14 10:21:00,
2013-02-14 05:26:00,33.3,31.7,29.67,SE,135,0.0,0.0,94,0.00,CLR,,0.01,WeatherDisplay:10.37,2013-02-14 10:26:00,
2013-02-14 05:31:00,33.3,31.7,29.68,SE,135,0.0,0.0,94,0.01,RA,,0.02,WeatherDisplay:10.37,2013-02-14 10:31:00,
2013-02-14 05:36:00,33.3,31.7,29.68,SE,135,0.0,0.0,94,0.01,RA,,0.02,WeatherDisplay:10.37,2013-02-14 10:36:00,
2013-02-14 05:41:00,33.1,31.5,29.69,SE,135,0.0,0.0,94,0.01,CLR,,0.02,WeatherDisplay:10.37,2013-02-14 10:41:00,
2013-02-14 05:46:00,33.1,31.5,29.69,SE,135,0.0,0.0,94,0.01,CLR,,0.02,WeatherDisplay:10.37,2013-02-14 10:46:00,
2013-02-14 05:51:00,33.1,31.5,29.69,SE,135,0.0,0.0,94,0.01,CLR,,0.02,WeatherDisplay:10.37,2013-02-14 10:51:00,
2013-02-14 05:56:00,33.1,31.5,29.69,SE,135,0.0,0.0,94,0.01,CLR,,0.02,WeatherDisplay:10.37,2013-02-14 10:56:00,
2013-02-14 06:01:00,32.9,31.4,29.69,SE,135,0.0,0.0,94,0.01,CLR,,0.02,WeatherDisplay:10.37,2013-02-14 11:01:00,
2013-02-14 06:06:00,32.7,31.2,29.70,SE,135,0.0,0.0,94,0.01,CLR,,0.02,WeatherDisplay:10.37,2013-02-14 11:06:00,
2013-02-14 06:11:00,32.7,31.2,29.71,SE,135,0.0,0.0,94,0.01,CLR,,0.02,WeatherDisplay:10.37,2013-02-14 11:11:00,
2013-02-14 06:16:00,32.7,31.2,29.71,SE,135,0.0,0.0,94,0.01,CLR,,0.02,WeatherDisplay:10.37,2013-02-14 11:16:00,
2013-02-14 06:21:00,32.5,31.0,29.71,SE,135,0.0,0.0,94,0.01,CLR,,0.02,WeatherDisplay:10.37,2013-02-14 11:21:00,
2013-02-14 06:26:00,32.5,31.0,29.72,SE,135,0.0,0.0,94,0.01,CLR,,0.02,WeatherDisplay:10.37,2013-02-14 11:26:00,
2013-02-14 06:31:00,32.5,31.0,29.72,SE,135,0.0,0.0,94,0.00,CLR,,0.02,WeatherDisplay:10.37,2013-02-14 11:31:00,
2013-02-14 06:36:00,32.4,30.8,29.73,SE,135,0.0,0.0,94,0.00,CLR,,0.02,WeatherDisplay:10.37,2013-02-14 11:36:00,
2013-02-14 06:41:00,32.4,30.8,29.73,SE,135,0.0,0.0,94,0.00,CLR,,0.02,WeatherDisplay:10.37,2013-02-14 11:41:00,
2013-02-14 06:46:00,32.4,30.8,29.73,SE,135,0.0,0.0,94,0.00,CLR,,0.02,WeatherDisplay:10.37,2013-02-14 11:46:00,
2013-02-14 06:51:00,32.5,31.0,29.73,SE,135,0.0,0.0,94,0.00,CLR,,0.02,WeatherDisplay:10.37,2013-02-14 11:51:00,
2013-02-14 06:56:00,32.5,31.0,29.74,SE,135,0.0,0.0,94,0.00,CLR,,0.02,WeatherDisplay:10.37,2013-02-14 11:56:00,
2013-02-14 07:01:00,32.5,31.3,29.74,SE,135,0.0,0.0,95,0.00,CLR,,0.02,WeatherDisplay:10.37,2013-02-14 12:01:00,
2013-02-14 07:06:00,32.7,31.4,29.74,SE,135,0.0,0.0,95,0.00,CLR,,0.02,WeatherDisplay:10.37,2013-02-14 12:06:00,
2013-02-14 07:11:00,32.9,31.6,29.74,SE,135,0.0,0.0,95,0.00,CLR,,0.02,WeatherDisplay:10.37,2013-02-14 12:11:00,
2013-02-14 07:16:00,33.1,31.8,29.75,SE,135,0.0,0.0,95,0.00,CLR,,0.02,WeatherDisplay:10.37,2013-02-14 12:16:00,
2013-02-14 07:21:00,33.3,32.0,29.75,SE,135,0.0,0.0,95,0.00,CLR,,0.02,WeatherDisplay:10.37,2013-02-14 12:21:00,
2013-02-14 07:26:00,33.3,32.0,29.75,SE,135,0.0,0.0,95,0.00,CLR,,0.02,WeatherDisplay:10.37,2013-02-14 12:26:00,
2013-02-14 07:31:00,33.4,32.2,29.75,SE,135,0.0,0.0,95,0.00,CLR,,0.02,WeatherDisplay:10.37,2013-02-14 12:31:00,
2013-02-14 07:36:00,33.4,32.2,29.75,SE,135,0.0,0.0,95,0.00,CLR,,0.02,WeatherDisplay:10.37,2013-02-14 12:36:00,
2013-02-14 07:41:00,33.6,32.3,29.75,SE,135,0.0,0.0,95,0.00,CLR,,0.02,WeatherDisplay:10.37,2013-02-14 12:41:00,
2013-02-14 07:46:00,33.8,32.5,29.76,SE,135,0.0,0.0,95,0.00,CLR,,0.02,WeatherDisplay:10.37,2013-02-14 12:46:00,
2013-02-14 07:51:00,33.8,32.5,29.77,SE,135,0.0,0.0,95,0.00,CLR,,0.02,WeatherDisplay:10.37,2013-02-14 12:51:00,
2013-02-14 07:56:00,33.6,32.3,29.77,SE,135,0.0,0.0,95,0.00,CLR,,0.02,WeatherDisplay:10.37,2013-02-14 12:56:00,
2013-02-14 08:01:00,33.6,32.3,29.77,SE,135,0.0,0.0,95,0.00,CLR,,0.02,WeatherDisplay:10.37,2013-02-14 13:01:00,
2013-02-14 08:06:00,33.8,32.5,29.78,SE,135,0.0,0.0,95,0.00,CLR,,0.02,WeatherDisplay:10.37,2013-02-14 13:06:00,
2013-02-14 08:11:00,33.8,32.5,29.78,SW,225,0.0,0.0,95,0.00,CLR,,0.02,WeatherDisplay:10.37,2013-02-14 13:11:00,
2013-02-14 08:16:00,34.0,32.7,29.78,West,270,0.0,0.0,95,0.00,CLR,,0.02,WeatherDisplay:10.37,2013-02-14 13:16:00,
2013-02-14 08:21:00,34.3,33.1,29.78,West,270,0.0,0.0,95,0.00,CLR,,0.02,WeatherDisplay:10.37,2013-02-14 13:21:00,
2013-02-14 08:26:00,34.5,33.2,29.78,West,270,4.6,4.6,95,0.00,CLR,,0.02,WeatherDisplay:10.37,2013-02-14 13:26:00,
2013-02-14 08:31:00,34.3,33.1,29.78,West,270,3.5,3.5,95,0.00,CLR,,0.02,WeatherDisplay:10.37,2013-02-14 13:31:00,
2013-02-14 08:36:00,34.5,33.0,29.79,West,270,4.6,4.6,94,0.01,RA,,0.04,WeatherDisplay:10.37,2013-02-14 13:36:00,
2013-02-14 08:41:00,34.7,33.2,29.79,NW,315,4.6,0.0,94,0.01,RA,,0.04,WeatherDisplay:10.37,2013-02-14 13:41:00,
2013-02-14 08:46:00,35.2,33.7,29.79,NW,315,3.5,3.5,94,0.01,,,0.04,WeatherDisplay:10.37,2013-02-14 13:46:00,
2013-02-14 08:51:00,35.2,33.7,29.79,West,270,4.6,4.6,94,0.02,RA,,0.05,WeatherDisplay:10.37,2013-02-14 13:51:00,
2013-02-14 08:56:00,35.4,33.9,29.79,West,270,5.8,5.8,94,0.02,RA,,0.05,WeatherDisplay:10.37,2013-02-14 13:56:00,
2013-02-14 09:01:00,35.6,34.0,29.79,West,270,3.5,0.0,94,0.02,,,0.05,WeatherDisplay:10.37,2013-02-14 14:01:00,
2013-02-14 09:06:00,36.1,34.6,29.79,West,270,1.1,0.0,94,0.02,CLR,,0.05,WeatherDisplay:10.37,2013-02-14 14:06:00,
2013-02-14 09:11:00,36.1,34.3,29.79,West,270,3.5,3.5,93,0.04,RA,,0.06,WeatherDisplay:10.37,2013-02-14 14:11:00,
2013-02-14 09:16:00,36.7,34.8,29.79,SW,225,4.6,4.6,93,0.04,RA,,0.06,WeatherDisplay:10.37,2013-02-14 14:16:00,
2013-02-14 09:21:00,37.0,34.9,29.80,WSW,248,5.8,5.8,92,0.04,CLR,,0.06,WeatherDisplay:10.37,2013-02-14 14:21:00,
2013-02-14 09:26:00,37.2,35.1,29.80,North,0,0.0,0.7,92,0.04,CLR,,0.06,WeatherDisplay:10.37,2013-02-14 14:26:00,
2013-02-14 09:31:00,37.8,35.4,29.81,West,270,3.5,3.5,91,0.05,RA,,0.07,WeatherDisplay:10.37,2013-02-14 14:31:00,
2013-02-14 09:36:00,37.6,34.9,29.81,SW,225,5.8,5.8,90,0.04,RA,,0.07,WeatherDisplay:10.37,2013-02-14 14:36:00,
2013-02-14 09:41:00,38.1,35.2,29.81,SW,225,5.8,5.8,89,0.05,RA,,0.08,WeatherDisplay:10.37,2013-02-14 14:41:00,
2013-02-14 09:46:00,38.3,34.8,29.81,SW,225,3.5,3.5,87,0.05,RA,,0.08,WeatherDisplay:10.37,2013-02-14 14:46:00,
2013-02-14 09:52:00,38.5,34.9,29.81,West,270,3.5,3.5,87,0.05,RA,,0.09,WeatherDisplay:10.37,2013-02-14 14:52:00,
2013-02-14 09:57:00,39.0,34.9,29.81,NE,45,3.5,0.0,85,0.05,RA,,0.09,WeatherDisplay:10.37,2013-02-14 14:57:00,
2013-02-14 10:02:00,39.4,35.2,29.81,West,270,3.5,3.5,85,0.06,RA,,0.11,WeatherDisplay:10.37,2013-02-14 15:02:00,
2013-02-14 10:07:00,41.7,37.8,29.81,NW,315,0.0,0.0,86,0.06,RA,,0.11,WeatherDisplay:10.37,2013-02-14 15:07:00,
2013-02-14 10:12:00,42.3,37.5,29.82,SW,225,3.5,3.5,83,0.06,RA,,0.12,WeatherDisplay:10.37,2013-02-14 15:12:00,
2013-02-14 10:17:00,40.6,31.6,29.81,West,270,3.5,3.5,70,0.07,RA,,0.13,WeatherDisplay:10.37,2013-02-14 15:17:00,
2013-02-14 10:22:00,39.7,30.0,29.82,SW,225,3.5,3.5,68,0.07,RA,,0.13,WeatherDisplay:10.37,2013-02-14 15:22:00,
2013-02-14 10:27:00,39.7,30.8,29.82,West,270,3.5,3.5,70,0.08,RA,,0.14,WeatherDisplay:10.37,2013-02-14 15:27:00,
2013-02-14 10:32:00,40.3,31.6,29.82,NE,45,3.5,3.5,71,0.08,RA,,0.15,WeatherDisplay:10.37,2013-02-14 15:32:00,
2013-02-14 10:37:00,40.8,32.1,29.82,West,270,4.6,4.6,71,0.08,RA,,0.15,WeatherDisplay:10.37,2013-02-14 15:37:00,
2013-02-14 10:42:00,41.5,32.5,29.82,SW,225,4.6,4.6,70,0.07,,,0.15,WeatherDisplay:10.37,2013-02-14 15:42:00,
2013-02-14 10:47:00,41.4,30.5,29.81,NE,45,5.8,5.8,65,0.07,CLR,,0.15,WeatherDisplay:10.37,2013-02-14 15:47:00,
2013-02-14 10:52:00,42.1,31.2,29.81,West,270,3.5,3.8,65,0.06,CLR,,0.17,WeatherDisplay:10.37,2013-02-14 15:52:00,
2013-02-14 10:57:00,44.1,32.7,29.81,SW,225,3.5,3.5,64,0.07,RA,,0.17,WeatherDisplay:10.37,2013-02-14 15:57:00,
2013-02-14 11:02:00,44.2,30.0,29.81,NW,315,4.6,4.6,57,0.06,RA,,0.17,WeatherDisplay:10.37,2013-02-14 16:02:00,
2013-02-14 11:07:00,44.2,27.7,29.81,SW,225,5.8,5.8,52,0.06,CLR,,0.17,WeatherDisplay:10.37,2013-02-14 16:07:00,
2013-02-14 11:12:00,44.8,28.2,29.81,West,270,5.8,5.8,52,0.05,CLR,,0.17,WeatherDisplay:10.37,2013-02-14 16:12:00,
2013-02-14 11:17:00,43.0,25.6,29.81,North,0,4.6,4.6,50,0.04,CLR,,0.17,WeatherDisplay:10.37,2013-02-14 16:17:00,
2013-02-14 11:22:00,44.1,27.1,29.82,SSW,202,6.9,6.9,51,0.04,CLR,,0.17,WeatherDisplay:10.37,2013-02-14 16:22:00,
2013-02-14 11:27:00,44.6,27.1,29.82,West,270,6.9,6.9,50,0.02,CLR,,0.17,WeatherDisplay:10.37,2013-02-14 16:27:00,
2013-02-14 11:32:00,45.5,27.9,29.82,East,90,3.5,3.5,50,0.01,CLR,,0.17,WeatherDisplay:10.37,2013-02-14 16:32:00,
2013-02-14 11:37:00,44.8,24.2,29.82,West,270,5.8,5.8,44,0.01,CLR,,0.17,WeatherDisplay:10.37,2013-02-14 16:37:00,
2013-02-14 11:42:00,44.1,24.6,29.82,SW,225,4.6,4.6,46,0.01,CLR,,0.17,WeatherDisplay:10.37,2013-02-14 16:42:00,
2013-02-14 11:47:00,45.0,25.4,29.83,South,180,8.1,8.1,46,0.01,CLR,,0.17,WeatherDisplay:10.37,2013-02-14 16:47:00,
2013-02-14 11:52:00,44.8,24.7,29.82,West,270,3.5,3.5,45,0.01,CLR,,0.17,WeatherDisplay:10.37,2013-02-14 16:52:00,
2013-02-14 11:57:00,45.1,25.6,29.82,SW,225,1.1,0.0,46,0.00,CLR,,0.17,WeatherDisplay:10.37,2013-02-14 16:57:00,
2013-02-14 12:02:00,45.3,22.4,29.82,South,180,5.8,5.8,40,0.00,CLR,,0.17,WeatherDisplay:10.37,2013-02-14 17:02:00,
2013-02-14 12:07:00,46.6,24.7,29.82,SE,135,3.5,0.0,42,0.00,CLR,,0.17,WeatherDisplay:10.37,2013-02-14 17:07:00,
2013-02-14 12:12:00,46.9,23.2,29.82,West,270,5.8,5.8,39,0.00,CLR,,0.17,WeatherDisplay:10.37,2013-02-14 17:12:00,
2013-02-14 12:17:00,46.9,22.6,29.82,NW,315,5.8,5.8,38,0.00,CLR,,0.17,WeatherDisplay:10.37,2013-02-14 17:17:00,
2013-02-14 12:22:00,47.3,22.3,29.82,North,0,4.6,4.6,37,0.00,CLR,,0.17,WeatherDisplay:10.37,2013-02-14 17:22:00,
2013-02-14 12:27:00,47.7,22.0,29.81,SSW,202,4.6,4.6,36,0.00,CLR,,0.17,WeatherDisplay:10.37,2013-02-14 17:27:00,
2013-02-14 12:32:00,48.0,19.5,29.81,South,180,3.5,3.5,32,0.00,CLR,,0.17,WeatherDisplay:10.37,2013-02-14 17:32:00,
2013-02-14 12:37:00,48.6,20.7,29.81,SW,225,5.4,5.4,33,0.00,CLR,,0.17,WeatherDisplay:10.37,2013-02-14 17:37:00,
2013-02-14 12:42:00,49.1,19.0,29.81,West,270,3.5,3.5,30,0.00,CLR,,0.17,WeatherDisplay:10.37,2013-02-14 17:42:00,
2013-02-14 12:47:00,49.6,20.9,29.81,North,0,3.5,0.0,32,0.00,CLR,,0.17,WeatherDisplay:10.37,2013-02-14 17:47:00,
2013-02-14 12:52:00,50.0,16.4,29.81,SSW,202,4.6,4.6,26,0.00,CLR,,0.17,WeatherDisplay:10.37,2013-02-14 17:52:00,
2013-02-14 12:57:00,50.4,14.9,29.81,North,0,3.5,3.5,24,0.00,CLR,,0.17,WeatherDisplay:10.37,2013-02-14 17:57:00,
2013-02-14 13:02:00,50.5,13.0,29.81,SW,225,5.8,5.8,22,0.00,CLR,,0.17,WeatherDisplay:10.37,2013-02-14 18:02:00,
2013-02-14 13:07:00,50.7,11.0,29.80,SW,225,4.6,4.6,20,0.00,CLR,,0.17,WeatherDisplay:10.37,2013-02-14 18:07:00,
2013-02-14 13:12:00,50.5,8.5,29.80,NW,315,4.6,4.6,18,0.00,CLR,,0.17,WeatherDisplay:10.37,2013-02-14 18:12:00,
2013-02-14 13:17:00,50.7,12.1,29.81,East,90,3.5,3.5,21,0.00,CLR,,0.17,WeatherDisplay:10.37,2013-02-14 18:17:00,
2013-02-14 13:22:00,51.1,13.5,29.80,East,90,1.1,1.1,22,0.00,CLR,,0.17,WeatherDisplay:10.37,2013-02-14 18:22:00,
2013-02-14 13:27:00,52.0,12.1,29.80,NE,45,3.5,3.5,20,0.00,CLR,,0.17,WeatherDisplay:10.37,2013-02-14 18:27:00,
2013-02-14 13:32:00,52.0,10.9,29.80,NW,315,2.3,0.0,19,0.00,CLR,,0.17,WeatherDisplay:10.37,2013-02-14 18:32:00,
2013-02-14 13:37:00,52.5,6.1,29.81,SW,225,3.5,3.5,15,0.00,CLR,,0.17,WeatherDisplay:10.37,2013-02-14 18:37:00,
2013-02-14 13:42:00,52.2,5.8,29.81,SW,225,3.5,0.0,15,0.00,CLR,,0.17,WeatherDisplay:10.37,2013-02-14 18:42:00,
2013-02-14 13:47:00,50.9,10.0,29.81,SW,225,5.8,5.8,19,0.00,CLR,,0.17,WeatherDisplay:10.37,2013-02-14 18:47:00,
2013-02-14 13:52:00,50.5,12.0,29.81,West,270,4.6,4.6,21,0.00,CLR,,0.17,WeatherDisplay:10.37,2013-02-14 18:52:00,
2013-02-14 13:57:00,49.5,14.1,29.80,West,270,4.6,4.6,24,0.00,CLR,,0.17,WeatherDisplay:10.37,2013-02-14 18:57:00,
2013-02-14 14:02:00,50.5,16.9,29.80,NW,315,2.3,2.3,26,0.00,CLR,,0.17,WeatherDisplay:10.37,2013-02-14 19:02:00,
2013-02-14 14:07:00,51.3,14.7,29.80,SW,225,5.8,5.8,23,0.00,CLR,,0.17,WeatherDisplay:10.37,2013-02-14 19:07:00,
2013-02-14 14:12:00,51.3,15.6,29.80,NE,45,4.6,4.6,24,0.00,CLR,,0.17,WeatherDisplay:10.37,2013-02-14 19:12:00,
2013-02-14 14:17:00,50.4,13.9,29.80,South,180,5.8,5.8,23,0.00,CLR,,0.17,WeatherDisplay:10.37,2013-02-14 19:17:00,
2013-02-14 14:22:00,49.6,17.0,29.80,NW,315,3.5,3.5,27,0.00,CLR,,0.17,WeatherDisplay:10.37,2013-02-14 19:22:00,
2013-02-14 14:27:00,50.2,14.7,29.81,South,180,3.5,3.5,24,0.00,CLR,,0.17,WeatherDisplay:10.37,2013-02-14 19:27:00,
2013-02-14 14:32:00,50.4,14.9,29.81,South,180,5.8,5.8,24,0.00,CLR,,0.17,WeatherDisplay:10.37,2013-02-14 19:32:00,
2013-02-14 14:37:00,50.5,13.0,29.81,West,270,3.5,3.5,22,0.00,CLR,,0.17,WeatherDisplay:10.37,2013-02-14 19:37:00,
2013-02-14 14:42:00,48.2,12.1,29.82,South,180,9.2,9.2,23,0.00,CLR,,0.17,WeatherDisplay:10.37,2013-02-14 19:42:00,
2013-02-14 14:47:00,48.4,15.9,29.81,NNE,22,4.6,4.6,27,0.00,CLR,,0.17,WeatherDisplay:10.37,2013-02-14 19:47:00,
2013-02-14 14:52:00,49.1,15.6,29.81,West,270,4.6,0.0,26,0.00,CLR,,0.17,WeatherDisplay:10.37,2013-02-14 19:52:00,
2013-02-14 14:57:00,50.5,15.0,29.81,South,180,5.8,5.8,24,0.00,CLR,,0.17,WeatherDisplay:10.37,2013-02-14 19:57:00,
2013-02-14 15:02:00,50.4,12.9,29.81,NE,45,8.1,8.1,22,0.00,CLR,,0.17,WeatherDisplay:10.37,2013-02-14 20:02:00,
2013-02-14 15:07:00,50.7,9.9,29.81,WSW,248,6.9,6.9,19,0.00,CLR,,0.17,WeatherDisplay:10.37,2013-02-14 20:07:00,
2013-02-14 15:12:00,50.4,9.6,29.81,North,0,4.6,4.6,19,0.00,CLR,,0.17,WeatherDisplay:10.37,2013-02-14 20:12:00,
2013-02-14 15:17:00,50.2,9.4,29.81,South,180,5.8,5.8,19,0.00,CLR,,0.17,WeatherDisplay:10.37,2013-02-14 20:17:00,
2013-02-14 15:22:00,50.0,9.3,29.81,South,180,6.9,6.9,19,0.00,CLR,,0.17,WeatherDisplay:10.37,2013-02-14 20:22:00,
2013-02-14 15:27:00,50.0,10.4,29.81,SE,135,5.8,5.8,20,0.00,CLR,,0.17,WeatherDisplay:10.37,2013-02-14 20:27:00,
2013-02-14 15:32:00,50.0,9.3,29.81,SW,225,4.6,4.6,19,0.00,CLR,,0.17,WeatherDisplay:10.37,2013-02-14 20:32:00,
2013-02-14 15:37:00,50.4,10.7,29.81,SW,225,3.5,3.5,20,0.00,CLR,,0.17,WeatherDisplay:10.37,2013-02-14 20:37:00,
2013-02-14 15:42:00,50.2,9.4,29.81,SW,225,5.8,5.8,19,0.00,CLR,,0.17,WeatherDisplay:10.37,2013-02-14 20:42:00,
2013-02-14 15:47:00,48.9,10.6,29.81,NNE,22,3.5,3.5,21,0.00,CLR,,0.17,WeatherDisplay:10.37,2013-02-14 20:47:00,
2013-02-14 15:50:00,34.9,32.0,29.87,WSW,257,1.0,3.0,89,0.00,CLR,,0.00,WeatherDisplay:10.37,2013-02-14 20:50:00,
2013-02-14 15:53:00,46.8,13.6,29.81,South,180,5.8,5.8,26,0.00,CLR,,0.17,WeatherDisplay:10.37,2013-02-14 20:53:00,
2013-02-14 15:55:00,35.1,32.1,29.87,WSW,250,1.0,3.0,89,0.00,CLR,,0.00,WeatherDisplay:10.37,2013-02-14 20:55:00,
2013-02-14 15:58:00,46.4,16.6,29.82,SSE,158,5.8,5.8,30,0.00,CLR,,0.17,WeatherDisplay:10.37,2013-02-14 20:58:00,
2013-02-14 16:00:00,35.1,32.1,29.88,SW,225,1.0,3.0,89,0.00,CLR,,0.00,WeatherDisplay:10.37,2013-02-14 21:00:00,
2013-02-14 16:03:00,47.1,18.0,29.82,WSW,248,5.8,5.8,31,0.00,CLR,,0.17,WeatherDisplay:10.37,2013-02-14 21:03:00,
2013-02-14 16:05:00,34.9,32.0,29.88,SW,225,1.0,4.0,89,0.00,CLR,,0.00,WeatherDisplay:10.37,2013-02-14 21:05:00,
2013-02-14 16:08:00,46.6,16.0,29.82,WSW,248,5.8,5.8,29,0.00,CLR,,0.17,WeatherDisplay:10.37,2013-02-14 21:08:00,
2013-02-14 16:13:00,45.0,17.5,29.83,SW,225,2.3,3.1,33,0.00,CLR,,0.17,WeatherDisplay:10.37,2013-02-14 21:13:00,
2013-02-14 16:18:00,43.9,19.3,29.83,North,0,8.1,8.1,37,0.00,CLR,,0.17,WeatherDisplay:10.37,2013-02-14 21:18:00,
2013-02-14 16:23:00,43.2,20.4,29.84,SW,225,3.5,3.8,40,0.00,CLR,,0.17,WeatherDisplay:10.37,2013-02-14 21:23:00,
2013-02-14 16:28:00,43.3,22.3,29.84,SSW,202,4.6,4.6,43,0.00,CLR,,0.17,WeatherDisplay:10.37,2013-02-14 21:28:00,
2013-02-14 16:33:00,43.2,22.1,29.84,SE,135,5.8,5.8,43,0.00,CLR,,0.17,WeatherDisplay:10.37,2013-02-14 21:33:00,
2013-02-14 16:38:00,43.2,23.2,29.84,SW,225,4.6,4.6,45,0.00,CLR,,0.17,WeatherDisplay:10.37,2013-02-14 21:38:00,
2013-02-14 16:43:00,43.2,23.2,29.84,South,180,6.9,6.9,45,0.00,CLR,,0.17,WeatherDisplay:10.37,2013-02-14 21:43:00,
2013-02-14 16:48:00,42.6,22.7,29.83,SSW,202,3.5,3.5,45,0.00,CLR,,0.17,WeatherDisplay:10.37,2013-02-14 21:48:00,
2013-02-14 16:53:00,42.3,22.9,29.83,SW,225,3.5,3.5,46,0.00,CLR,,0.17,WeatherDisplay:10.37,2013-02-14 21:53:00,
2013-02-14 16:58:00,42.1,23.3,29.84,SE,135,2.3,0.0,47,0.00,CLR,,0.17,WeatherDisplay:10.37,2013-02-14 21:58:00,
2013-02-14 17:03:00,41.7,23.9,29.83,WNW,292,4.6,0.0,49,0.00,CLR,,0.17,WeatherDisplay:10.37,2013-02-14 22:03:00,
2013-02-14 17:08:00,41.5,24.3,29.84,South,180,4.6,0.0,50,0.00,CLR,,0.17,WeatherDisplay:10.37,2013-02-14 22:08:00,
2013-02-14 17:13:00,41.2,24.4,29.84,North,0,3.5,0.0,51,0.00,CLR,,0.17,WeatherDisplay:10.37,2013-02-14 22:13:00,
2013-02-14 17:18:00,40.8,25.0,29.84,SE,135,3.5,3.5,53,0.00,CLR,,0.17,WeatherDisplay:10.37,2013-02-14 22:18:00,
2013-02-14 17:23:00,40.6,26.2,29.84,South,180,8.1,8.1,56,0.00,CLR,,0.17,WeatherDisplay:10.37,2013-02-14 22:23:00,
2013-02-14 17:28:00,40.5,26.4,29.84,South,180,10.4,10.4,57,0.00,CLR,,0.17,WeatherDisplay:10.37,2013-02-14 22:28:00,
2013-02-14 17:33:00,40.3,27.1,29.83,South,180,8.1,8.1,59,0.00,CLR,,0.17,WeatherDisplay:10.37,2013-02-14 22:33:00,
2013-02-14 17:38:00,39.9,26.7,29.83,NE,45,8.1,8.1,59,0.00,CLR,,0.17,WeatherDisplay:10.37,2013-02-14 22:38:00,
2013-02-14 17:43:00,39.7,26.6,29.83,South,180,5.8,5.8,59,0.00,CLR,,0.17,WeatherDisplay:10.37,2013-02-14 22:43:00,
2013-02-14 17:48:00,39.7,26.6,29.83,SSE,158,6.9,6.9,59,0.00,CLR,,0.17,WeatherDisplay:10.37,2013-02-14 22:48:00,
2013-02-14 17:53:00,39.6,26.8,29.83,South,180,5.8,5.8,60,0.00,CLR,,0.17,WeatherDisplay:10.37,2013-02-14 22:53:00,
2013-02-14 17:58:00,39.6,27.2,29.83,SE,135,4.6,4.6,61,0.00,CLR,,0.17,WeatherDisplay:10.37,2013-02-14 22:58:00,
2013-02-14 18:03:00,39.4,27.8,29.84,SSE,158,5.8,5.8,63,0.00,CLR,,0.17,WeatherDisplay:10.37,2013-02-14 23:03:00,
2013-02-14 18:08:00,39.2,28.0,29.85,NW,315,5.8,0.0,64,0.00,CLR,,0.17,WeatherDisplay:10.37,2013-02-14 23:08:00,
2013-02-14 18:13:00,39.2,28.0,29.85,South,180,6.9,6.9,64,0.00,CLR,,0.17,WeatherDisplay:10.37,2013-02-14 23:13:00,
2013-02-14 18:18:00,39.2,28.8,29.85,SW,225,8.1,8.1,66,0.00,CLR,,0.17,WeatherDisplay:10.37,2013-02-14 23:18:00,
2013-02-14 18:23:00,39.2,28.8,29.85,South,180,5.8,5.8,66,0.00,CLR,,0.17,WeatherDisplay:10.37,2013-02-14 23:23:00,
2013-02-14 18:28:00,39.2,28.8,29.85,SW,225,5.8,5.8,66,0.00,CLR,,0.17,WeatherDisplay:10.37,2013-02-14 23:28:00,
2013-02-14 18:33:00,39.2,28.8,29.85,SW,225,5.8,5.8,66,0.00,CLR,,0.17,WeatherDisplay:10.37,2013-02-14 23:33:00,
2013-02-14 18:38:00,39.2,28.8,29.85,SSW,202,5.8,5.8,66,0.00,CLR,,0.17,WeatherDisplay:10.37,2013-02-14 23:38:00,
2013-02-14 18:43:00,39.0,28.6,29.85,South,180,6.9,6.9,66,0.00,CLR,,0.17,WeatherDisplay:10.37,2013-02-14 23:43:00,
2013-02-14 18:48:00,38.8,28.4,29.85,South,180,5.8,5.8,66,0.00,CLR,,0.17,WeatherDisplay:10.37,2013-02-14 23:48:00,
2013-02-14 18:53:00,38.8,28.8,29.85,SW,225,3.5,3.5,67,0.00,CLR,,0.17,WeatherDisplay:10.37,2013-02-14 23:53:00,
2013-02-14 18:58:00,38.7,28.6,29.85,South,180,4.6,4.6,67,0.00,CLR,,0.17,WeatherDisplay:10.37,2013-02-14 23:58:00,
2013-02-14 19:03:00,38.5,28.5,29.85,SSW,202,3.5,3.5,67,0.00,CLR,,0.17,WeatherDisplay:10.37,2013-02-15 00:03:00,
2013-02-14 19:08:00,38.5,28.8,29.85,SE,135,5.8,5.8,68,0.00,CLR,,0.17,WeatherDisplay:10.37,2013-02-15 00:08:00,
2013-02-14 19:13:00,38.5,28.8,29.85,South,180,2.3,0.0,68,0.00,CLR,,0.17,WeatherDisplay:10.37,2013-02-15 00:13:00,
2013-02-14 19:18:00,38.3,28.7,29.85,South,180,3.5,3.5,68,0.00,CLR,,0.17,WeatherDisplay:10.37,2013-02-15 00:18:00,
2013-02-14 19:23:00,38.1,28.5,29.86,SW,225,1.1,0.0,68,0.00,CLR,,0.17,WeatherDisplay:10.37,2013-02-15 00:23:00,
2013-02-14 19:28:00,37.9,28.3,29.86,South,180,2.3,2.3,68,0.00,CLR,,0.17,WeatherDisplay:10.37,2013-02-15 00:28:00,
2013-02-14 19:33:00,37.9,28.7,29.86,South,180,4.6,0.0,69,0.00,CLR,,0.17,WeatherDisplay:10.37,2013-02-15 00:33:00,
2013-02-14 19:38:00,37.8,28.5,29.86,West,270,6.9,6.9,69,0.00,CLR,,0.17,WeatherDisplay:10.37,2013-02-15 00:38:00,
2013-02-14 19:43:00,37.8,28.5,29.86,South,180,3.5,0.0,69,0.00,CLR,,0.17,WeatherDisplay:10.37,2013-02-15 00:43:00,
2013-02-14 19:48:00,37.6,28.3,29.85,SW,225,3.5,3.5,69,0.00,CLR,,0.17,WeatherDisplay:10.37,2013-02-15 00:48:00,
2013-02-14 19:53:00,37.6,28.3,29.85,SW,225,3.5,0.0,69,0.00,CLR,,0.17,WeatherDisplay:10.37,2013-02-15 00:53:00,
2013-02-14 19:58:00,37.4,28.2,29.85,SSW,202,3.5,0.0,69,0.00,CLR,,0.17,WeatherDisplay:10.37,2013-02-15 00:58:00,
2013-02-14 20:03:00,37.4,27.8,29.85,West,270,3.5,3.5,68,0.00,CLR,,0.17,WeatherDisplay:10.37,2013-02-15 01:03:00,
2013-02-14 20:08:00,37.4,28.2,29.85,SW,225,5.8,5.8,69,0.00,CLR,,0.17,WeatherDisplay:10.37,2013-02-15 01:08:00,
2013-02-14 20:13:00,37.4,28.2,29.85,SW,225,1.1,0.0,69,0.00,CLR,,0.17,WeatherDisplay:10.37,2013-02-15 01:13:00,
2013-02-14 20:18:00,37.0,27.8,29.85,SW,225,1.1,0.0,69,0.00,CLR,,0.17,WeatherDisplay:10.37,2013-02-15 01:18:00,
2013-02-14 20:23:00,37.0,27.8,29.85,SE,135,3.5,3.5,69,0.00,CLR,,0.17,WeatherDisplay:10.37,2013-02-15 01:23:00,
2013-02-14 20:28:00,36.9,27.6,29.86,SW,225,3.5,3.5,69,0.00,CLR,,0.17,WeatherDisplay:10.37,2013-02-15 01:28:00,
2013-02-14 20:33:00,36.9,27.6,29.86,SW,225,0.0,0.0,69,0.00,CLR,,0.17,WeatherDisplay:10.37,2013-02-15 01:33:00,
2013-02-14 20:38:00,36.9,28.0,29.86,West,270,3.5,0.0,70,0.00,CLR,,0.17,WeatherDisplay:10.37,2013-02-15 01:38:00,
2013-02-14 20:43:00,36.9,28.0,29.86,South,180,4.6,0.0,70,0.00,CLR,,0.17,WeatherDisplay:10.37,2013-02-15 01:43:00,
2013-02-14 20:48:00,36.9,28.3,29.87,SW,225,4.6,4.6,71,0.00,CLR,,0.17,WeatherDisplay:10.37,2013-02-15 01:48:00,
2013-02-14 20:53:00,36.9,28.3,29.87,SW,225,3.5,3.5,71,0.00,CLR,,0.17,WeatherDisplay:10.37,2013-02-15 01:53:00,
2013-02-14 20:58:00,36.7,28.5,29.87,South,180,3.5,3.5,72,0.00,CLR,,0.17,WeatherDisplay:10.37,2013-02-15 01:58:00,
2013-02-14 21:03:00,36.5,28.3,29.87,West,270,3.5,0.0,72,0.00,CLR,,0.17,WeatherDisplay:10.37,2013-02-15 02:03:00,
2013-02-14 21:08:00,36.5,28.3,29.87,SSW,202,2.3,2.3,72,0.00,CLR,,0.17,WeatherDisplay:10.37,2013-02-15 02:08:00,
2013-02-14 21:13:00,36.3,28.5,29.87,South,180,1.1,0.0,73,0.00,CLR,,0.17,WeatherDisplay:10.37,2013-02-15 02:13:00,
2013-02-14 21:18:00,36.1,28.0,29.87,South,180,0.0,0.0,72,0.00,CLR,,0.17,WeatherDisplay:10.37,2013-02-15 02:18:00,
2013-02-14 21:23:00,36.1,28.3,29.87,SW,225,0.0,0.0,73,0.00,CLR,,0.17,WeatherDisplay:10.37,2013-02-15 02:23:00,
2013-02-14 21:29:00,36.0,28.1,29.87,West,270,2.3,2.3,73,0.00,CLR,,0.17,WeatherDisplay:10.37,2013-02-15 02:29:00,
2013-02-14 21:34:00,35.8,28.0,29.87,SW,225,2.3,0.0,73,0.00,CLR,,0.17,WeatherDisplay:10.37,2013-02-15 02:34:00,
2013-02-14 21:39:00,35.8,28.0,29.87,SW,225,0.0,0.0,73,0.00,CLR,,0.17,WeatherDisplay:10.37,2013-02-15 02:39:00,
2013-02-14 21:44:00,35.4,27.6,29.87,SW,225,0.0,0.0,73,0.00,CLR,,0.17,WeatherDisplay:10.37,2013-02-15 02:44:00,
2013-02-14 21:49:00,35.4,28.0,29.87,SW,225,0.0,0.0,74,0.00,CLR,,0.17,WeatherDisplay:10.37,2013-02-15 02:49:00,
2013-02-14 21:54:00,35.1,27.6,29.87,South,180,0.0,0.0,74,0.00,CLR,,0.17,WeatherDisplay:10.37,2013-02-15 02:54:00,
2013-02-14 21:59:00,35.1,27.6,29.88,South,180,2.3,0.0,74,0.00,CLR,,0.17,WeatherDisplay:10.37,2013-02-15 02:59:00,
2013-02-14 22:04:00,34.9,27.4,29.88,South,180,0.0,0.7,74,0.00,CLR,,0.17,WeatherDisplay:10.37,2013-02-15 03:04:00,
2013-02-14 22:09:00,34.7,27.3,29.88,SW,225,1.1,1.1,74,0.00,CLR,,0.17,WeatherDisplay:10.37,2013-02-15 03:09:00,
2013-02-14 22:14:00,34.9,27.8,29.88,South,180,2.3,0.0,75,0.00,CLR,,0.17,WeatherDisplay:10.37,2013-02-15 03:14:00,
2013-02-14 22:19:00,35.1,28.3,29.88,West,270,3.5,0.0,76,0.00,CLR,,0.17,WeatherDisplay:10.37,2013-02-15 03:19:00,
2013-02-14 22:24:00,35.1,28.6,29.88,SW,225,3.5,0.0,77,0.00,CLR,,0.17,WeatherDisplay:10.37,2013-02-15 03:24:00,
2013-02-14 22:29:00,35.1,28.6,29.88,SW,225,3.5,0.0,77,0.00,CLR,,0.17,WeatherDisplay:10.37,2013-02-15 03:29:00,
2013-02-14 22:34:00,35.1,28.6,29.88,West,270,4.6,0.0,77,0.00,CLR,,0.17,WeatherDisplay:10.37,2013-02-15 03:34:00,
2013-02-14 22:39:00,35.2,29.1,29.88,South,180,3.5,0.0,78,0.00,CLR,,0.17,WeatherDisplay:10.37,2013-02-15 03:39:00,
2013-02-14 22:44:00,35.4,29.2,29.88,South,180,8.1,8.1,78,0.00,CLR,,0.17,WeatherDisplay:10.37,2013-02-15 03:44:00,
2013-02-14 22:49:00,35.6,29.1,29.88,SW,225,4.6,4.6,77,0.00,CLR,,0.17,WeatherDisplay:10.37,2013-02-15 03:49:00,
2013-02-14 22:54:00,35.6,28.8,29.88,SW,225,5.8,5.8,76,0.00,CLR,,0.17,WeatherDisplay:10.37,2013-02-15 03:54:00,
2013-02-14 22:59:00,35.8,28.6,29.88,West,270,3.5,3.5,75,0.00,CLR,,0.17,WeatherDisplay:10.37,2013-02-15 03:59:00,
2013-02-14 23:04:00,35.6,28.1,29.87,SW,225,4.6,4.6,74,0.00,CLR,,0.17,WeatherDisplay:10.37,2013-02-15 04:04:00,
2013-02-14 23:09:00,35.4,27.6,29.87,SW,225,3.5,3.5,73,0.00,CLR,,0.17,WeatherDisplay:10.37,2013-02-15 04:09:00,
2013-02-14 23:14:00,35.4,27.6,29.87,SW,225,4.6,4.6,73,0.00,CLR,,0.17,WeatherDisplay:10.37,2013-02-15 04:14:00,
2013-02-14 23:19:00,35.6,27.8,29.87,SW,225,8.1,8.1,73,0.00,CLR,,0.17,WeatherDisplay:10.37,2013-02-15 04:19:00,
2013-02-14 23:24:00,35.4,27.6,29.87,SW,225,3.5,3.5,73,0.00,CLR,,0.17,WeatherDisplay:10.37,2013-02-15 04:24:00,
2013-02-14 23:29:00,35.2,27.4,29.87,SW,225,3.5,3.5,73,0.00,CLR,,0.17,WeatherDisplay:10.37,2013-02-15 04:29:00,
2013-02-14 23:34:00,35.1,27.3,29.88,South,180,5.8,5.8,73,0.00,CLR,,0.17,WeatherDisplay:10.37,2013-02-15 04:34:00,
2013-02-14 23:39:00,35.1,27.3,29.88,West,270,3.8,3.8,73,0.00,CLR,,0.17,WeatherDisplay:10.37,2013-02-15 04:39:00,
2013-02-14 23:44:00,35.1,27.6,29.88,SW,225,5.8,5.8,74,0.00,CLR,,0.17,WeatherDisplay:10.37,2013-02-15 04:44:00,
2013-02-14 23:49:00,35.1,27.6,29.88,SW,225,3.5,3.5,74,0.00,CLR,,0.17,WeatherDisplay:10.37,2013-02-15 04:49:00,
2013-02-14 23:54:00,35.1,27.9,29.88,South,180,2.3,0.0,75,0.00,CLR,,0.17,WeatherDisplay:10.37,2013-02-15 04:54:00,
2013-02-14 23:59:00,35.1,27.9,29.88,SW,225,3.5,3.5,75,0.00,CLR,,0.17,WeatherDisplay:10.37,2013-02-15 04:59:00,